Wind_Speed
37 38 39 39 39 39 39 39 39 39 40 41 40 40 40 40 40 41 41 42 43 42 42 42 42 41 40 40 40 41 42 43 43 43 43 42 43 45 45 45 45 47 47
37 37 39 39 39 39 39 38 38 39 39 40 40 39 39 39 40 39 39 39 40 40 40 41 40 39 39 40 40 40 41 41 42 41 41 41 42 43 43 43 43 44 45
36 36 38 38 38 38 38 38 38 38 38 38 38 37 37 37 38 38 38 37 38 38 39 39 38 38 38 38 38 39 39 39 40 40 40 41 40 40 41 41 41 42 43
35 35 36 36 37 38 38 39 38 38 38 37 36 35 35 36 36 36 37 37 37 37 37 37 37 37 37 37 37 37 37 37 38 39 40 41 40 39 40 40 41 42 42
34 34 35 35 35 36 37 37 37 36 36 35 34 34 33 33 34 35 35 36 36 36 36 35 35 36 36 37 37 36 36 36 37 38 39 39 39 39 40 40 40 40 40
34 34 34 34 34 35 36 35 35 34 34 34 33 32 32 33 33 33 34 34 33 33 33 33 34 34 34 35 35 35 35 35 35 36 35 36 37 37 38 38 38 38 39
33 33 33 32 33 33 34 34 34 34 34 33 32 31 32 32 33 32 32 31 31 30 30 31 31 32 32 32 33 33 33 33 33 33 33 33 34 34 35 36 36 37 37
32 32 31 31 31 31 31 32 33 33 33 32 31 31 32 32 32 31 30 30 29 29 29 28 28 28 29 30 31 31 31 31 31 30 31 32 32 33 33 34 35 36 37
30 30 29 29 30 30 30 31 31 31 31 31 31 31 31 31 30 30 29 28 28 28 28 27 27 27 27 27 28 28 28 29 29 29 30 30 30 31 32 32 33 33 34
29 29 29 29 29 29 29 29 29 29 29 29 29 29 30 30 29 29 28 27 27 27 27 26 26 26 26 26 26 26 26 26 27 28 29 29 30 30 29 30 31 31 32
27 27 27 28 28 27 27 28 28 28 29 29 29 28 28 27 27 27 27 26 26 26 26 25 25 25 25 25 25 25 25 25 26 27 27 27 27 28 28 29 29 30 31
24 24 25 25 25 25 25 26 26 26 27 27 27 27 26 25 25 25 25 25 25 25 25 25 25 24 24 24 24 24 24 25 25 25 25 26 26 26 26 27 27 27 28
22 22 23 23 23 24 24 24 24 24 24 24 25 24 24 24 24 24 24 24 24 24 23 23 24 24 24 24 24 24 24 24 24 24 24 24 24 24 25 25 25 25 25
21 21 22 22 23 23 23 23 23 23 23 23 23 23 23 23 23 23 23 23 23 23 23 23 23 23 23 24 24 23 23 23 23 23 23 23 23 23 22 22 22 21 22
20 20 21 21 22 22 22 22 22 22 22 23 22 22 22 21 22 22 21 22 22 22 22 23 23 22 22 22 22 22 22 23 22 22 22 22 22 21 21 21 21 21 21
20 19 20 21 21 21 21 21 21 22 22 22 22 21 21 21 21 21 21 21 20 20 20 20 21 21 21 21 21 21 21 21 21 21 21 21 20 19 19 19 19 20 20
20 20 20 21 21 21 21 21 21 21 21 21 21 20 20 20 20 20 20 19 19 19 19 19 19 20 20 20 21 21 21 20 20 19 19 18 18 18 18 18 18 17 17
20 20 20 21 21 21 21 21 21 20 20 20 20 20 20 20 19 19 20 20 20 20 20 20 20 20 20 19 19 19 19 19 19 19 18 18 18 17 17 17 16 16 16
20 20 21 21 21 21 21 21 21 20 20 19 19 19 19 19 20 20 20 20 21 20 20 20 20 20 19 18 18 17 17 17 17 17 17 17 17 17 16 16 15 15 14
21 21 21 22 22 22 21 21 20 20 20 19 19 19 19 19 19 19 19 20 20 20 20 20 19 19 18 17 17 17 16 16 16 15 15 15 16 16 16 15 14 14 13
21 21 22 22 22 22 21 20 20 19 19 18 18 18 17 17 18 17 17 17 17 17 18 18 18 18 17 17 16 16 16 15 14 14 14 14 14 15 15 15 14 13 12
22 22 21 22 21 21 21 20 19 19 18 18 17 17 16 16 15 15 15 15 15 15 15 16 16 16 16 16 15 15 14 14 13 13 13 13 13 14 14 14 13 12 12
22 22 21 21 21 21 20 20 19 18 17 17 16 16 16 15 15 14 14 14 14 14 14 14 14 14 14 14 13 13 13 13 12 12 13 13 13 13 13 13 13 13 12
21 21 21 20 20 20 19 18 17 16 16 16 16 15 14 14 14 14 13 13 12 12 12 12 12 12 13 13 13 12 12 12 12 12 12 13 13 13 13 12 12 12 12
20 20 20 19 19 19 18 17 16 16 15 15 15 14 14 13 12 12 12 12 12 11 11 11 12 12 12 12 12 12 12 12 12 13 13 13 13 13 12 12 12 12 12
19 19 19 19 18 18 17 17 16 16 15 15 15 14 13 12 12 11 11 11 11 11 11 12 12 12 12 12 13 13 12 12 12 13 13 13 13 13 13 12 12 12 12
Wind_Direction
283 281 279 278 277 277 277 277 279 280 281 281 280 278 277 276 277 276 275 273 273 271 270 269 268 267 266 265 265 265 265 264 264 264 264 263 263 263 264 265 265 265 264
285 283 281 279 277 277 277 278 279 281 281 281 281 279 277 277 277 277 276 275 273 271 270 269 267 265 265 265 265 265 266 265 266 265 264 264 265 265 265 265 265 264 264
285 284 282 279 277 277 278 278 279 280 281 281 281 279 278 278 277 276 276 275 273 272 271 269 267 266 266 266 266 266 266 266 266 266 267 267 267 266 266 265 265 264 263
284 284 283 280 279 278 278 279 279 280 281 281 280 279 279 279 278 278 277 275 274 272 271 269 267 266 265 266 266 265 266 266 266 267 268 267 267 267 267 267 265 264 262
284 284 284 283 281 280 279 280 279 279 281 281 279 279 279 280 280 280 279 276 274 272 271 270 268 266 266 266 265 265 267 267 268 268 267 267 267 269 268 267 266 264 263
284 284 284 284 283 281 281 281 280 279 281 280 279 279 279 280 281 280 279 277 275 273 272 271 269 268 267 266 265 265 266 268 268 269 268 268 270 271 270 269 268 266 264
283 284 283 284 284 283 282 281 280 280 281 280 279 279 280 281 282 281 279 277 276 275 274 273 272 269 267 266 264 264 266 268 269 270 270 270 270 269 270 270 268 268 266
283 283 283 283 284 284 284 282 281 280 280 279 279 279 280 281 282 280 278 278 277 276 275 274 273 270 268 266 265 265 266 267 268 270 271 269 268 269 269 270 269 268 268
284 284 284 284 284 284 284 284 283 282 281 280 279 279 280 280 280 279 278 276 275 275 275 274 273 271 269 267 266 266 266 267 268 270 271 269 269 270 269 270 270 270 269
285 284 284 284 284 285 285 285 285 284 283 281 281 280 279 278 278 277 276 276 275 273 273 272 272 271 270 269 268 268 269 270 270 270 272 272 272 270 269 270 270 270 269
285 285 284 284 285 285 286 286 287 287 285 283 281 280 280 279 277 276 275 275 274 273 272 271 272 271 269 268 268 269 270 271 272 273 274 273 272 270 270 270 270 271 270
288 288 287 287 287 287 288 289 289 288 287 284 281 280 280 280 278 276 275 274 273 273 272 270 269 269 267 267 268 269 271 272 272 274 274 273 272 271 273 273 272 272 270
291 290 289 289 289 289 290 290 290 290 289 288 285 283 282 280 277 276 275 274 273 273 271 269 268 268 266 266 267 269 272 273 273 274 275 275 272 271 273 274 273 273 272
295 294 293 292 291 292 292 291 290 290 291 293 292 286 281 278 277 275 275 273 272 272 270 269 268 267 266 266 267 269 272 274 275 276 275 275 273 272 274 274 273 273 272
298 296 296 296 295 296 295 292 292 292 293 294 293 288 282 279 278 278 275 272 271 271 270 269 267 266 266 266 268 269 271 273 274 274 274 274 273 272 273 274 273 272 271
301 299 299 300 300 299 298 296 295 294 294 293 292 289 285 282 279 277 275 272 270 270 270 268 267 267 266 267 270 271 272 273 273 273 271 272 273 272 272 274 274 272 270
302 301 300 301 302 301 301 300 299 297 296 295 293 290 288 284 280 277 274 272 271 271 271 269 267 267 267 268 270 271 271 272 271 270 269 269 270 270 270 271 271 271 272
302 302 302 302 302 302 302 302 301 299 297 296 294 291 288 286 282 278 275 272 271 271 270 267 266 267 268 269 270 270 271 270 269 268 266 265 266 267 270 270 270 271 273
302 302 302 302 302 302 302 302 302 300 297 296 294 291 289 286 283 280 277 274 271 269 267 266 265 266 268 268 268 269 270 271 270 268 265 262 262 265 269 268 267 270 273
302 302 302 303 303 302 302 302 303 300 298 297 295 292 288 286 285 282 278 274 271 267 265 264 263 263 265 265 266 266 268 269 269 265 262 261 261 261 263 264 266 267 268
304 304 303 303 303 303 302 301 302 301 300 299 298 294 290 288 287 284 279 275 271 267 264 262 261 260 261 261 262 264 266 266 265 262 262 259 258 258 258 260 263 263 262
303 303 303 303 303 303 302 301 301 300 300 300 299 296 293 291 288 284 280 275 271 267 264 261 258 257 258 260 261 262 261 262 262 261 259 257 258 258 257 258 258 257 256
302 302 302 302 303 303 302 301 299 299 299 299 299 296 292 289 286 282 277 274 271 266 264 262 258 256 256 258 258 259 259 258 257 257 257 256 257 257 257 259 258 255 254
301 302 302 303 303 302 302 301 300 300 299 299 299 297 293 288 284 280 276 273 269 266 262 260 257 257 258 258 258 256 256 258 259 258 256 256 258 260 260 259 257 254 251
301 301 302 303 303 302 301 300 300 301 302 302 300 299 295 289 283 278 274 270 267 265 262 260 258 259 260 259 258 258 259 261 261 260 259 259 259 259 259 257 254 249 246
301 301 300 301 303 303 302 300 299 300 301 303 303 300 296 289 282 277 274 271 267 264 264 264 263 262 261 260 260 260 260 261 262 262 261 259 257 257 257 254 249 245 243
Height
5602 5601 5599 5597 5596 5595 5593 5592 5591 5589 5587 5585 5583 5582 5581 5581 5580 5579 5578 5578 5577 5577 5577 5577 5577 5577 5578 5578 5579 5581 5582 5584 5586 5588 5590 5591 5592 5594 5595 5596 5597 5599 5601
5592 5590 5588 5587 5586 5584 5583 5582 5580 5579 5577 5575 5573 5571 5570 5569 5569 5568 5567 5566 5566 5565 5565 5565 5565 5566 5567 5567 5568 5570 5571 5573 5574 5576 5578 5579 5580 5581 5583 5584 5585 5587 5588
5582 5580 5578 5577 5575 5574 5573 5571 5570 5569 5567 5564 5562 5561 5560 5559 5558 5557 5556 5555 5555 5554 5554 5554 5554 5555 5556 5557 5558 5559 5560 5561 5563 5565 5567 5568 5569 5569 5571 5572 5573 5575 5576
5572 5570 5568 5567 5565 5564 5563 5561 5560 5559 5557 5555 5553 5551 5550 5549 5548 5547 5545 5544 5544 5543 5543 5543 5543 5544 5545 5546 5547 5548 5549 5551 5552 5553 5555 5556 5557 5558 5559 5561 5561 5563 5564
5563 5561 5559 5557 5555 5554 5553 5551 5550 5549 5547 5545 5543 5542 5540 5539 5538 5536 5535 5534 5533 5532 5532 5532 5533 5533 5534 5535 5537 5538 5539 5540 5541 5543 5544 5545 5546 5547 5548 5548 5549 5550 5552
5554 5552 5550 5548 5546 5544 5543 5541 5540 5539 5537 5535 5534 5533 5531 5530 5528 5526 5525 5524 5523 5523 5523 5522 5522 5523 5524 5525 5526 5528 5529 5530 5531 5532 5533 5534 5535 5536 5536 5537 5538 5539 5542
5545 5543 5541 5539 5537 5535 5533 5532 5531 5530 5528 5526 5525 5524 5523 5521 5519 5517 5516 5515 5514 5514 5513 5513 5513 5513 5514 5515 5517 5518 5519 5520 5522 5522 5523 5524 5525 5526 5526 5527 5527 5528 5530
5536 5534 5532 5530 5528 5526 5525 5523 5522 5520 5519 5517 5516 5515 5514 5512 5510 5508 5507 5507 5506 5506 5505 5504 5504 5505 5505 5506 5508 5509 5510 5512 5513 5513 5514 5515 5516 5516 5516 5517 5517 5519 5520
5527 5525 5523 5521 5520 5518 5516 5515 5513 5512 5510 5509 5507 5506 5505 5503 5501 5500 5499 5499 5498 5498 5498 5497 5497 5497 5498 5498 5500 5501 5503 5503 5504 5505 5506 5506 5506 5507 5507 5507 5509 5510 5511
5519 5517 5515 5514 5512 5510 5509 5507 5505 5503 5502 5500 5499 5497 5496 5495 5493 5492 5491 5491 5491 5491 5491 5491 5491 5491 5491 5491 5493 5494 5495 5496 5496 5497 5497 5498 5498 5498 5499 5499 5500 5501 5501
5511 5509 5508 5506 5505 5503 5501 5499 5497 5495 5494 5492 5491 5489 5488 5486 5485 5484 5484 5483 5483 5483 5484 5484 5484 5484 5484 5485 5486 5487 5488 5489 5489 5490 5490 5490 5490 5491 5491 5491 5492 5492 5493
5504 5502 5501 5499 5498 5496 5494 5492 5490 5488 5486 5484 5483 5481 5480 5479 5478 5477 5477 5476 5476 5476 5476 5477 5477 5478 5478 5479 5479 5480 5481 5482 5482 5483 5483 5483 5484 5484 5484 5484 5484 5484 5484
5498 5496 5494 5493 5491 5489 5487 5485 5483 5481 5479 5477 5476 5474 5473 5472 5472 5471 5470 5469 5469 5469 5470 5470 5470 5471 5472 5472 5473 5474 5475 5476 5476 5476 5477 5477 5477 5477 5477 5477 5477 5477 5477
5493 5491 5489 5487 5485 5483 5481 5479 5477 5475 5473 5471 5469 5468 5467 5466 5465 5464 5464 5463 5463 5462 5463 5463 5464 5464 5465 5466 5467 5468 5469 5469 5470 5470 5470 5470 5470 5471 5471 5471 5471 5471 5471
5488 5486 5484 5482 5480 5478 5475 5473 5471 5469 5467 5465 5463 5461 5460 5460 5459 5458 5457 5457 5456 5456 5456 5457 5458 5458 5459 5460 5461 5462 5463 5463 5463 5464 5464 5464 5465 5465 5465 5465 5465 5465 5466
5483 5481 5479 5477 5475 5472 5470 5467 5465 5463 5461 5458 5456 5455 5454 5453 5452 5451 5450 5450 5450 5450 5450 5451 5452 5453 5454 5455 5455 5456 5456 5457 5457 5457 5458 5458 5459 5459 5460 5460 5460 5460 5460
5478 5476 5474 5471 5469 5467 5464 5462 5460 5458 5455 5453 5451 5449 5448 5446 5446 5445 5445 5444 5444 5444 5445 5446 5446 5447 5448 5449 5449 5450 5450 5451 5451 5451 5452 5453 5453 5454 5454 5455 5455 5455 5455
5473 5471 5469 5466 5464 5462 5459 5457 5454 5452 5450 5448 5445 5443 5442 5441 5440 5439 5439 5439 5439 5439 5440 5440 5441 5442 5442 5443 5443 5444 5444 5445 5445 5446 5446 5447 5448 5448 5449 5450 5450 5450 5450
5468 5466 5464 5461 5459 5456 5454 5451 5449 5446 5444 5442 5440 5438 5436 5435 5434 5434 5433 5433 5433 5434 5434 5435 5435 5436 5437 5438 5438 5439 5439 5440 5440 5440 5441 5442 5443 5443 5444 5445 5445 5446 5446
5463 5461 5458 5456 5453 5451 5448 5446 5443 5441 5439 5437 5435 5433 5431 5430 5429 5428 5428 5427 5427 5428 5428 5429 5430 5431 5432 5432 5433 5434 5435 5435 5436 5436 5437 5437 5438 5439 5440 5440 5441 5442 5443
5458 5455 5453 5450 5448 5445 5443 5440 5438 5436 5433 5431 5429 5427 5426 5425 5424 5423 5422 5422 5422 5422 5423 5424 5425 5426 5427 5428 5428 5429 5430 5431 5431 5432 5432 5433 5434 5435 5436 5436 5437 5438 5439
5452 5450 5447 5445 5442 5440 5437 5435 5433 5430 5428 5426 5424 5423 5421 5420 5419 5418 5418 5418 5417 5418 5418 5419 5420 5421 5422 5423 5424 5425 5426 5426 5427 5428 5428 5429 5430 5431 5432 5433 5433 5434 5435
5446 5444 5441 5439 5436 5434 5432 5430 5427 5425 5424 5422 5420 5418 5416 5415 5414 5414 5413 5413 5413 5413 5414 5414 5415 5417 5418 5418 5419 5420 5421 5422 5423 5424 5425 5426 5426 5427 5428 5429 5430 5430 5432
5440 5438 5435 5433 5430 5428 5426 5424 5422 5421 5419 5417 5415 5414 5412 5411 5410 5410 5409 5409 5409 5410 5410 5411 5412 5413 5414 5414 5415 5416 5417 5418 5419 5420 5421 5422 5423 5423 5424 5425 5426 5427 5428
5435 5432 5430 5427 5425 5423 5421 5419 5418 5416 5415 5413 5411 5410 5408 5407 5406 5406 5406 5406 5406 5406 5407 5407 5408 5409 5410 5411 5412 5412 5413 5414 5415 5416 5417 5418 5419 5419 5420 5421 5422 5423 5425
5429 5427 5424 5422 5420 5418 5417 5415 5414 5412 5411 5409 5407 5406 5404 5403 5403 5402 5402 5402 5402 5403 5403 5404 5405 5405 5406 5407 5408 5409 5410 5410 5411 5412 5413 5414 5415 5415 5416 5417 5419 5420 5421